When you browse on this site, cookies collect data to enhance your experience and personalize the content and advertising you see.
Visit our Privacy Policy to learn more. By continuing to use the site, you agree to this use of cookies and data.
  • în România
  • Lista ţărilor
  • Pe 7 zile
  • Temperatura apei
  • Hartă satelitară
  • Meteo pe hartă
  • Widget-uri
  • user-avatar
    Intrare

    Meteo pe oră la Neuquén

    Astăzi, 17 Ianuarie, Joi

    Timp Temperatura Precipitaţii Vânt Presiune Umiditate
    00:00 +21°C° 0 mm 6 m/s 739 mmHg 25%
    01:00 +20°C° 0 mm 7 m/s 739 mmHg 31%
    02:00 +18°C° 0 mm 7 m/s 740 mmHg 34%
    03:00 +17°C° 0 mm 6 m/s 740 mmHg 37%
    04:00 +17°C° 0 mm 6 m/s 741 mmHg 41%
    05:00 +17°C° 0 mm 6 m/s 741 mmHg 39%
    06:00 +19°C° 0 mm 6 m/s 742 mmHg 37%
    07:00 +20°C° 0 mm 6 m/s 742 mmHg 36%
    08:00 +21°C° 0 mm 6 m/s 742 mmHg 32%
    09:00 +22°C° 0 mm 6 m/s 742 mmHg 28%
    10:00 +24°C° 0 mm 6 m/s 742 mmHg 24%
    11:00 +26°C° 0 mm 5 m/s 742 mmHg 22%
    12:00 +27°C° 0 mm 5 m/s 741 mmHg 19%
    13:00 +28°C° 0 mm 4 m/s 741 mmHg 17%
    14:00 +28°C° 0 mm 4 m/s 740 mmHg 16%
    15:00 +29°C° 0 mm 4 m/s 740 mmHg 15%
    16:00 +29°C° 0 mm 4 m/s 739 mmHg 13%
    17:00 +29°C° 0 mm 4 m/s 739 mmHg 14%
    18:00 +28°C° 0 mm 4 m/s 739 mmHg 14%
    19:00 +27°C° 0 mm 4 m/s 739 mmHg 15%
    20:00 +26°C° 0 mm 4 m/s 739 mmHg 16%
    21:00 +26°C° 0 mm 4 m/s 740 mmHg 17%
    22:00 +25°C° 0 mm 4 m/s 740 mmHg 17%
    23:00 +23°C° 0 mm 4 m/s 740 mmHg 19%

    Mâine, 18 Ianuarie, Vineri

    Timp Temperatura Precipitaţii Vânt Presiune Umiditate
    00:00 +22°C° 0 mm 4 m/s 739 mmHg 21%
    01:00 +22°C° 0 mm 4 m/s 739 mmHg 23%
    02:00 +21°C° 0 mm 4 m/s 739 mmHg 25%
    03:00 +20°C° 0 mm 3 m/s 739 mmHg 26%
    04:00 +19°C° 0 mm 2 m/s 739 mmHg 28%
    05:00 +21°C° 0 mm 3 m/s 739 mmHg 25%
    06:00 +22°C° 0 mm 3 m/s 739 mmHg 22%
    07:00 +24°C° 0 mm 3 m/s 739 mmHg 20%
    08:00 +26°C° 0 mm 4 m/s 739 mmHg 17%
    09:00 +27°C° 0 mm 5 m/s 739 mmHg 14%
    10:00 +29°C° 0 mm 5 m/s 739 mmHg 12%
    11:00 +30°C° 0 mm 6 m/s 738 mmHg 11%
    12:00 +32°C° 0 mm 6 m/s 737 mmHg 10%
    13:00 +33°C° 0 mm 6 m/s 737 mmHg 9%
    14:00 +33°C° 0 mm 6 m/s 736 mmHg 9%
    15:00 +33°C° 0 mm 6 m/s 736 mmHg 9%
    16:00 +34°C° 0 mm 6 m/s 735 mmHg 9%
    17:00 +33°C° 0 mm 6 m/s 735 mmHg 10%
    18:00 +32°C° 0 mm 6 m/s 735 mmHg 10%
    19:00 +30°C° 0 mm 5 m/s 735 mmHg 11%
    20:00 +29°C° 0 mm 5 m/s 735 mmHg 13%
    21:00 +28°C° 0 mm 5 m/s 735 mmHg 14%
    22:00 +27°C° 0 mm 5 m/s 735 mmHg 16%
    23:00 +27°C° 0 mm 5 m/s 735 mmHg 18%

    Poimâine, 19 Ianuarie, Sâmbătă

    Timp Temperatura Precipitaţii Vânt Presiune Umiditate
    00:00 +26°C° 0 mm 5 m/s 735 mmHg 21%
    01:00 +25°C° 0 mm 5 m/s 734 mmHg 23%
    02:00 +25°C° 0 mm 5 m/s 734 mmHg 29%
    03:00 +23°C° 0 mm 5 m/s 734 mmHg 34%
    04:00 +22°C° 0 mm 5 m/s 734 mmHg 39%
    05:00 +23°C° 0 mm 6 m/s 734 mmHg 38%
    06:00 +24°C° 0 mm 7 m/s 734 mmHg 38%
    07:00 +26°C° 0 mm 8 m/s 734 mmHg 37%
    08:00 +28°C° 0 mm 8 m/s 734 mmHg 33%
    09:00 +31°C° 0 mm 8 m/s 734 mmHg 30%
    10:00 +32°C° 0 mm 8 m/s 733 mmHg 26%
    11:00 +34°C° 0 mm 8 m/s 733 mmHg 24%
    12:00 +35°C° 0 mm 7 m/s 732 mmHg 21%
    13:00 +36°C° 0 mm 7 m/s 732 mmHg 19%
    14:00 +38°C° 0 mm 6 m/s 731 mmHg 18%
    15:00 +37°C° 0 mm 5 m/s 730 mmHg 16%
    16:00 +38°C° 0 mm 4 m/s 730 mmHg 15%
    17:00 +37°C° 0 mm 4 m/s 730 mmHg 15%
    18:00 +36°C° 0 mm 3 m/s 730 mmHg 16%
    19:00 +36°C° 0 mm 2 m/s 730 mmHg 16%
    20:00 +35°C° 0 mm 3 m/s 730 mmHg 18%
    21:00 +34°C° 0 mm 5 m/s 730 mmHg 19%
    22:00 +34°C° 0 mm 6 m/s 730 mmHg 21%
    23:00 +33°C° 0 mm 5 m/s 730 mmHg 23%

    20 Ianuarie, Duminică

    Timp Temperatura Precipitaţii Vânt Presiune Umiditate
    00:00 +32°C° 0 mm 5 m/s 730 mmHg 26%
    01:00 +30°C° 0 mm 5 m/s 729 mmHg 28%
    02:00 +29°C° 0 mm 5 m/s 729 mmHg 28%
    03:00 +28°C° 0 mm 4 m/s 729 mmHg 27%
    04:00 +27°C° 0 mm 4 m/s 729 mmHg 27%
    05:00 +28°C° 0 mm 4 m/s 729 mmHg 23%
    06:00 +30°C° 0 mm 5 m/s 730 mmHg 20%
    07:00 +32°C° 0 mm 5 m/s 730 mmHg 16%
    08:00 +33°C° 0 mm 5 m/s 730 mmHg 16%
    09:00 +35°C° 0 mm 5 m/s 729 mmHg 15%
    10:00 +36°C° 0 mm 4 m/s 729 mmHg 14%
    11:00 +37°C° 0 mm 5 m/s 728 mmHg 13%
    12:00 +39°C° 0 mm 5 m/s 728 mmHg 12%
    13:00 +40°C° 0 mm 5 m/s 727 mmHg 11%
    14:00 +40°C° 0 mm 6 m/s 727 mmHg 9%
    15:00 +41°C° 0 mm 6 m/s 726 mmHg 7%
    16:00 +43°C° 0 mm 7 m/s 726 mmHg 5%
    17:00 +40°C° 0 mm 9 m/s 727 mmHg 8%
    18:00 +38°C° 0 mm 11 m/s 727 mmHg 10%
    19:00 +36°C° 0 mm 12 m/s 727 mmHg 13%
    20:00 +33°C° 0 mm 12 m/s 728 mmHg 14%
    21:00 +32°C° 0 mm 12 m/s 729 mmHg 16%
    22:00 +29°C° 0 mm 11 m/s 730 mmHg 17%
    23:00 +28°C° 0 mm 11 m/s 730 mmHg 18%

    21 Ianuarie, Luni

    Timp Temperatura Precipitaţii Vânt Presiune Umiditate
    00:00 +27°C° 0 mm 10 m/s 730 mmHg 18%
    01:00 +26°C° 0 mm 10 m/s 730 mmHg 19%
    02:00 +24°C° 0 mm 9 m/s 730 mmHg 25%
    03:00 +23°C° 0 mm 9 m/s 730 mmHg 31%
    04:00 +22°C° 0 mm 8 m/s 731 mmHg 37%
    05:00 +23°C° 0 mm 8 m/s 731 mmHg 35%
    06:00 +23°C° 0 mm 8 m/s 731 mmHg 33%
    07:00 +24°C° 0 mm 8 m/s 732 mmHg 31%
    08:00 +26°C° 0 mm 8 m/s 731 mmHg 27%
    09:00 +28°C° 0 mm 7 m/s 731 mmHg 23%
    10:00 +30°C° 0 mm 6 m/s 731 mmHg 18%
    11:00 +32°C° 0 mm 6 m/s 730 mmHg 16%
    12:00 +33°C° 0 mm 6 m/s 729 mmHg 14%
    13:00 +35°C° 0 mm 6 m/s 728 mmHg 11%
    14:00 +36°C° 0 mm 6 m/s 728 mmHg 10%
    15:00 +37°C° 0 mm 5 m/s 727 mmHg 8%
    16:00 +39°C° 0 mm 5 m/s 727 mmHg 7%
    17:00 +38°C° 0 mm 6 m/s 727 mmHg 7%
    18:00 +37°C° 0 mm 8 m/s 727 mmHg 8%
    19:00 +35°C° 0 mm 9 m/s 727 mmHg 9%
    20:00 +33°C° 0 mm 10 m/s 727 mmHg 11%
    21:00 +31°C° 0 mm 10 m/s 728 mmHg 13%
    22:00 +28°C° 0 mm 11 m/s 728 mmHg 14%
    23:00 +27°C° 0 mm 10 m/s 728 mmHg 16%

    22 Ianuarie, Marţi

    Timp Temperatura Precipitaţii Vânt Presiune Umiditate
    00:00 +26°C° 0 mm 9 m/s 728 mmHg 17%
    01:00 +24°C° 0 mm 9 m/s 728 mmHg 18%
    02:00 +23°C° 0 mm 8 m/s 728 mmHg 18%
    03:00 +22°C° 0 mm 8 m/s 728 mmHg 17%
    04:00 +21°C° 0 mm 8 m/s 728 mmHg 16%
    05:00 +22°C° 0 mm 9 m/s 728 mmHg 15%
    06:00 +22°C° 0 mm 9 m/s 729 mmHg 14%
    07:00 +23°C° 0 mm 10 m/s 729 mmHg 12%
    08:00 +24°C° 0 mm 10 m/s 729 mmHg 12%
    09:00 +26°C° 0 mm 10 m/s 729 mmHg 13%
    10:00 +27°C° 0 mm 11 m/s 729 mmHg 13%
    11:00 +29°C° 0 mm 10 m/s 729 mmHg 12%
    12:00 +31°C° 0 mm 9 m/s 729 mmHg 11%
    13:00 +33°C° 0 mm 7 m/s 728 mmHg 10%
    14:00 +33°C° 0 mm 9 m/s 728 mmHg 10%
    15:00 +34°C° 0 mm 10 m/s 728 mmHg 10%
    16:00 +36°C° 0 mm 11 m/s 727 mmHg 11%
    17:00 +33°C° 0 mm 11 m/s 728 mmHg 13%
    18:00 +31°C° 0 mm 11 m/s 728 mmHg 15%
    19:00 +28°C° 0 mm 10 m/s 728 mmHg 17%
    20:00 +26°C° 0 mm 10 m/s 729 mmHg 19%
    21:00 +24°C° 0 mm 9 m/s 730 mmHg 22%
    22:00 +23°C° 0 mm 9 m/s 730 mmHg 24%
    23:00 +22°C° 0 mm 8 m/s 730 mmHg 25%
    Arată mai mult